SCP
0 0 0 0 0 0 0 0 0 0 0 0 0 0 0 0 0 0 0 0 0 0 0 0 0 0 0 0 0 0 0 0 0 0 0 0 0 0 0 0 0 0 0
0 0 0 0 0 0 0 0 0 0 0 0 0 0 0 0 0 0 0 0 0 0 0 0 0 0 0 0 0 0 0 0 0 0 0 0 0 0 0 0 0 0 0
0 0 0 0 0 0 0 0 0 0 0 0 0 0 0 0 0 0 0 0 0 0 0 0 0 0 0 0 0 0 0 0 0 0 0 0 0 0 0 0 0 0 0
0 0 0 0 0 0 0 0 0 0 0 0 0 0 0 0 0 0 0 0 0 0 0 0 0 0 0 0 0 0 0 0 0 0 0 0 0 0 0 0 0 0 0
0 0 0 0 0 0 0 0 0 0 0 0 0 0 0 0 0 0 0 0 0 0 0 0 0 0 0 0 0 0 0 0 0 0 0 0 0 0 0 0 0 0 0
0 0 0 0 0 0 0 0 0 0 0 0 0 0 0 0 0 0 0 0 0 0 0 0 0 0 0 0 0 0 0 0 0 0 0 0 0 0 0 0 0 0 0
0 0 0 0 0 0 0 0 0 0 0 0 0 0 0 0 0 0 0 0 0 0 0 0 0 0 0 0 0 0 0 0 0 0 0 0 0 0 0 0 0 0 0
0 0 0 0 0 0 0 0 0 0 0 0 0 0 0 0 0 0 0 0 0 0 0 0 0 0 0 0 0 0 0 0 0 0 0 0 0 0 0 0 0 0 0
0 0 0 0 0 0 0 0 0 0 0 0 0 0 0 0 0 0 0 0 0 0 0 0 0 0 0 0 0 0 0 0 0 0 0 0 0 0 0 0 0 0 0
0 0 0 0 0 0 0 0 0 0 0 0 0 0 0 0 0 0 0 0 0 0 0 0 0 0 0 0 0 0 0 0 0 0 0 0 0 0 0 0 0 0 0
0 0 0 0 0 0 0 0 0 0 0 0 0 0 0 0 0 0 0 0 0 0 0 0 0 0 0 0 0 0 0 0 0 0 0 0 0 0 0 0 0 0 0
0 0 0 0 0 0 0 0 0 0 0 0 0 0 0 0 0 0 0 0 0 0 0 0 0 0 0 0 0 0 0 0 0 0 0 0 0 0 0 0 0 0 0
0 0 0 0 0 0 0 0 0 0 0 0 0 0 0 0 0 0 0 0 0 0 0 0 0 0 0 0 0 0 0 0 0 0 0 0 0 0 0 0 0 0 0
0 0 0 0 0 0 0 0 0 0 0 0 0 0 0 0 0 0 0 0 0 0 0 0 0 0 0 0 0 0 0 0 0 0 0 0 0 0 0 0 0 0 0
0 0 0 0 0 0 0 0 0 0 0 0 0 0 0 0 0 0 0 0 0 0 0 0 0 0 0 0 0 0 0 0 0 0 0 0 0 0 0 0 0 0 0
0 0 0 0 0 0 0 0 0 0 0 0 0 0 0 0 0 0 0 0 0 0 0 0 0 0 0 0 0 0 0 0 0 0 0 0 0 0 0 0 0 0 0
0 0 0 0 0 0 0 0 0 0 0 0 0 0 0 0 0 0 0 0 0 0 0 0 0 0 0 0 0 0 0 0 0 0 0 0 0 0 0 0 0 0 0
0 0 0 0 0 0 0 0 0 0 0 0 0 0 0 0 0 0 0 0 0 0 0 0 0 0 0 0 0 0 0 0 0 0 0 0 0 0 0 0 0 0 0
0 0 0 0 0 0 0 0 0 0 0 0 0 0 0 0 0 0 0 0 0 0 0 0 0 0 0 0 0 0 0 0 0 0 0 0 0 0 0 0 0 0 0
0 0 0 0 0 0 0 0 0 0 0 0 0 0 0 0 0 0 0 0 0 0 0 0 0 0 0 0 0 0 0 0 0 0 0 0 0 0 0 0 0 0 0
0 0 0 0 0 0 0 0 0 0 0 0 0 0 0 0 0 0 0 0 0 0 0 0 0 0 0 0 0 0 0 0 0 0 0 0 0 0 0 0 0 0 0
0 0 0 0 0 0 0 0 0 0 0 0 0 0 0 0 0 0 0 0 0 0 0 0 0 0 0 0 0 0 0 0 0 0 0 0 0 0 0 0 0 0 0
0 0 0 0 0 0 0 0 0 0 0 0 0 0 0 0 0 0 0 0 0 0 0 0 0 0 0 0 0 0 0 0 0 0 0 0 0 0 0 0 0 0 0
0 0 0 0 0 0 0 0 0 0 0 0 0 0 0 0 0 0 0 0 0 0 0 0 0 0 0 0 0 0 0 0 0 0 0 0 0 0 0 0 0 0 0
0 0 0 0 0 0 0 0 0 0 0 0 0 0 0 0 0 0 0 0 0 0 0 0 0 0 0 0 0 0 0 0 0 0 0 0 0 0 0 0 0 0 0
0 0 0 0 0 0 0 0 0 0 0 0 0 0 0 0 0 0 0 0 0 0 0 0 0 0 0 0 0 0 0 0 0 0 0 0 0 0 0 0 0 0 0
Wind_Speed
8 7 6 5 6 6 7 8 9 10 10 10 10 10 11 11 10 9 9 18 19 20 21 21 22 22 22 23 23 23 23 23 23 23 23 24 24 24 24 25 25 25 26
8 8 7 7 6 6 7 8 10 9 9 8 10 10 10 9 9 9 9 13 19 20 20 21 21 21 21 22 22 22 22 22 22 23 23 23 23 24 24 24 25 25 25
10 9 8 7 7 8 9 9 11 9 9 9 10 10 8 8 8 9 8 7 10 17 19 20 20 20 20 20 20 21 21 21 22 22 22 23 23 23 24 24 24 25 25
12 10 8 8 9 8 8 9 9 9 9 8 8 7 7 7 9 8 7 7 6 7 14 19 19 19 19 19 19 19 20 20 21 21 21 22 22 23 23 24 24 25 25
12 10 9 9 11 9 8 9 9 9 10 9 8 7 6 6 7 7 8 8 7 7 7 12 17 18 18 18 18 18 19 19 20 20 20 21 22 22 23 23 24 24 25
11 10 9 12 11 9 9 9 11 10 10 10 9 8 6 6 5 6 6 6 6 7 7 7 7 10 16 17 17 17 18 18 19 19 19 20 21 21 22 23 23 24 25
11 11 10 12 11 11 12 13 12 14 10 10 9 7 6 6 5 4 4 5 6 6 7 7 6 5 6 13 16 16 17 17 17 18 18 19 20 20 21 22 23 23 24
11 10 13 12 12 11 13 14 15 10 9 9 7 7 6 5 4 3 3 4 5 5 5 6 6 6 5 4 9 14 15 16 16 17 17 18 19 20 21 21 22 23 24
10 11 13 13 13 13 14 17 16 13 12 9 6 6 7 7 6 5 4 4 4 4 4 4 5 5 5 4 5 10 13 14 15 16 16 17 18 19 20 21 22 23 24
9 10 12 13 13 12 14 16 15 11 14 11 6 3 1 5 7 7 5 5 5 4 4 3 3 4 4 3 4 8 11 12 13 14 15 16 18 19 20 21 22 23 24
8 9 11 12 13 11 14 15 14 12 11 11 8 6 4 4 4 5 7 7 6 5 4 4 3 2 2 2 2 6 9 10 12 13 14 15 17 18 19 21 22 23 24
6 9 10 10 12 10 13 14 14 14 11 11 8 7 6 6 6 5 5 8 7 5 5 4 4 2 1 0 2 5 7 9 11 12 13 15 16 17 19 20 22 23 24
7 11 11 11 10 11 11 11 12 13 12 12 10 7 5 4 4 4 5 6 5 4 5 5 4 4 2 2 1 4 5 8 10 12 13 14 16 17 19 20 22 23 24
11 13 13 12 12 12 12 11 10 11 10 10 9 8 6 4 4 4 5 6 5 4 5 6 5 5 4 3 2 5 4 7 10 12 13 14 16 17 19 20 21 23 24
9 13 13 12 12 12 13 13 9 11 10 9 9 8 6 5 4 4 4 4 5 5 6 6 5 6 4 3 4 5 5 7 11 12 13 15 16 17 19 20 22 23 24
10 13 12 12 12 12 13 12 10 10 10 9 8 9 7 6 5 4 4 3 2 3 4 4 4 4 4 4 5 6 6 10 11 11 13 15 16 18 19 20 22 23 24
12 13 14 13 13 13 13 12 11 13 12 10 9 10 9 8 6 5 4 4 3 2 3 3 2 3 5 6 5 5 6 7 7 11 13 15 17 18 18 20 21 23 24
12 13 13 13 13 14 14 14 14 14 14 13 12 11 10 8 8 6 5 5 4 4 3 4 3 4 6 5 6 7 6 6 7 11 14 16 17 17 18 19 21 22 23
13 12 13 14 14 14 14 13 14 14 13 13 13 13 12 11 10 7 7 6 5 4 3 3 4 3 4 4 6 7 8 7 7 9 13 15 16 17 18 19 21 21 23
14 14 14 14 13 13 13 12 12 13 12 11 11 11 12 12 11 10 8 7 6 5 5 4 4 4 5 5 5 6 6 6 7 7 10 11 13 16 18 19 19 20 22
13 14 13 12 11 11 12 14 13 13 13 12 10 10 10 11 11 10 7 8 8 6 6 5 5 5 5 4 5 4 6 8 9 7 7 7 8 9 11 14 16 18 22
12 12 13 13 13 11 18 22 16 13 12 13 12 10 9 9 12 14 13 12 11 9 8 6 6 7 8 7 6 6 7 7 8 3 6 9 8 10 9 9 15 21 22
13 13 14 14 14 16 23 24 19 13 13 12 12 11 8 8 9 9 12 14 14 16 14 8 9 10 9 7 7 8 8 9 10 7 8 11 9 10 9 10 19 21 21
13 13 13 14 13 14 23 24 20 12 11 11 11 11 10 10 10 10 9 9 11 12 14 12 11 11 9 8 7 9 10 11 11 8 7 9 9 10 10 10 16 18 19
11 11 11 12 12 12 21 23 21 9 9 10 9 9 10 10 14 16 10 10 11 11 14 18 18 16 16 15 11 7 8 8 10 8 5 6 7 10 11 10 9 13 18
9 8 8 9 9 9 18 23 22 9 9 8 8 8 11 13 14 17 12 11 12 11 8 8 12 14 14 13 15 11 9 9 9 7 3 4 6 7 9 7 6 9 12
Wind_Direction
161 155 145 144 138 133 127 120 113 107 100 93 88 86 83 79 80 80 68 56 63 68 70 71 71 69 66 63 60 57 53 50 46 43 39 36 33 30 27 24 21 18 15
164 157 150 144 139 136 129 124 121 113 104 99 93 88 86 85 82 83 82 68 62 64 67 69 69 68 66 63 60 56 53 49 46 42 38 35 32 29 25 22 19 16 13
170 159 153 149 144 137 130 124 119 114 111 106 99 92 86 82 87 85 82 79 72 64 63 66 67 67 65 63 60 56 52 48 45 41 37 33 30 27 24 21 17 14 11
173 161 156 152 146 142 140 136 133 126 120 115 108 99 93 88 83 84 82 81 76 72 65 62 61 62 63 60 58 55 51 47 43 39 36 32 28 25 21 18 15 12 9
173 164 159 153 150 147 145 141 138 136 129 121 111 102 94 89 88 88 86 81 77 77 76 68 60 55 57 57 54 51 48 45 41 37 33 29 25 22 18 15 12 9 6
171 162 155 156 154 150 149 148 141 135 130 127 116 99 89 93 94 93 94 89 82 80 77 73 66 58 53 53 50 47 45 42 38 34 29 25 21 18 15 12 9 6 3
171 164 156 159 162 160 157 152 142 139 136 136 124 112 97 93 98 101 105 105 97 87 81 73 66 63 56 49 45 42 39 37 34 30 25 21 17 14 10 7 5 1 358
175 169 165 165 167 159 155 155 151 146 153 169 153 145 144 151 140 121 129 125 119 109 91 79 73 64 59 52 41 38 33 30 27 24 20 16 11 8 5 2 359 356 354
181 175 172 168 169 165 166 166 169 162 167 182 195 173 166 169 153 161 161 157 148 137 121 103 85 70 61 55 40 32 26 23 20 16 13 9 5 2 359 357 354 351 349
184 178 175 172 172 173 172 174 179 175 169 172 183 213 198 144 158 157 174 176 172 168 155 139 116 88 64 59 46 29 17 15 12 9 5 1 358 355 352 351 348 346 345
184 180 181 176 177 177 177 177 179 180 180 180 173 162 152 153 163 157 165 173 182 184 177 168 157 131 86 53 34 22 7 4 2 360 356 353 350 348 346 345 343 342 341
179 184 185 182 181 179 180 181 182 184 185 185 180 173 164 167 176 170 157 166 175 173 182 188 189 180 162 38 32 1 353 352 350 349 347 345 342 341 340 339 338 338 337
185 187 184 184 183 181 180 179 182 185 184 183 183 179 174 168 153 155 143 148 161 156 183 196 200 200 203 248 280 339 330 338 337 338 338 336 335 334 335 334 334 334 333
188 182 185 183 181 178 177 178 181 181 181 183 181 170 159 151 153 155 148 150 153 163 187 188 183 202 211 234 283 296 301 323 324 327 328 328 328 328 329 329 330 330 329
182 179 183 179 177 176 176 175 178 175 172 175 169 159 148 141 140 135 140 156 157 172 190 184 185 191 210 234 260 279 294 311 312 314 318 320 321 322 324 325 326 326 326
179 178 180 178 174 174 174 174 169 169 166 164 157 153 145 143 136 133 132 128 139 166 176 166 186 180 206 235 256 272 282 294 290 298 307 311 313 316 317 320 321 322 322
182 183 182 178 175 174 174 173 169 166 165 160 158 156 151 148 144 141 139 140 147 163 176 164 189 204 232 243 246 259 276 283 284 287 296 301 305 308 310 314 316 317 318
187 186 182 180 179 176 176 175 169 170 168 166 164 160 156 154 154 153 155 161 167 178 192 196 201 218 236 251 266 273 274 273 275 283 287 292 296 299 303 306 310 312 315
187 186 186 186 183 180 179 178 172 172 173 170 168 168 164 163 166 167 169 171 172 177 196 208 221 230 246 250 271 271 269 269 270 274 281 284 286 292 296 300 304 308 310
189 189 191 191 186 181 178 174 171 171 170 169 171 171 170 175 175 173 175 180 175 181 193 215 233 243 251 252 260 272 277 274 278 276 274 278 284 288 289 293 298 303 306
193 191 190 190 185 182 181 176 173 171 168 168 171 176 178 181 181 177 175 180 179 189 195 214 230 244 248 244 248 260 277 289 286 275 279 280 283 283 287 290 295 300 307
193 190 192 189 189 191 188 183 175 172 171 172 175 178 179 180 188 193 198 196 195 196 202 211 225 236 249 251 254 259 273 287 289 277 286 286 285 285 288 291 299 305 307
193 194 196 193 195 197 190 187 179 172 175 178 177 176 177 185 186 195 207 213 218 224 220 219 236 242 253 252 256 260 261 267 272 290 300 289 291 287 292 294 301 303 306
195 198 198 197 196 198 192 187 178 176 178 181 180 180 181 184 192 192 198 213 224 228 229 230 240 250 255 259 253 262 272 277 278 272 262 279 294 295 299 297 298 301 308
197 199 195 194 195 194 192 185 177 176 180 182 182 183 187 191 199 197 201 218 231 240 243 240 245 253 258 258 256 259 261 265 276 278 252 264 292 303 299 293 298 306 310
194 191 191 191 189 187 190 186 180 178 182 181 182 192 199 200 203 202 208 218 232 238 232 242 249 255 257 257 252 247 252 258 271 282 254 249 287 308 302 295 305 309 309